Flag for Germany Weather past 2 weeks in Moers, North Rhine-Westphalia, Germany

Now
52 °F

Sunny.


Feels Like: 52 °F
Forecast: 48 / 66 °F
Wind: 1 mph from North

Location: Duesseldorf


UV Index: 3 (Moderate)

Visibility: 10 mi


Pressure: 29.68 "Hg

Humidity: 77%

Dew point: 45 °F

Location of MoersLocation

Historic Weather in Moers

°F

Moers temperature yesterday

Maximum temperature yesterday: 72 °F (at 1:50 PM)
Minimum temperature yesterday: 52 °F (at 4:50 AM)
Average temperature yesterday: 61 °F

Past Weeks' High & Low Weather Summary

 TemperatureHumidityPressure
High72 °F (Apr 7, 4:20 PM)93% (Apr 9, 3:20 AM)30.45 "Hg (Apr 9, 3:20 AM)
Low30 °F (Apr 16, 4:50 AM)24% (Apr 17, 4:50 PM)29.65 "Hg (Apr 20, 5:50 PM)
Average52 °F65%30.07 "Hg
* Reported Apr 6 8:20 AM — Apr 21 8:50 AM, Moers, Weather by CustomWeather, © 2014

Note: Actual official high and low records may vary slightly from our data, if they occured in-between our weather recording intervals... More about our weather records

Advertising

Historic Weather Conditions — Data for Previous 24 hours

 ConditionsComfort  
Time TempWeatherWind HumidityBarometerVisibility
8:50 AM
Apr 21
50 °FSunny.2 mph82%29.68 "Hg10 mi
8:20 AM48 °FSunny.1 mph87%29.68 "Hg10 mi
7:50 AM46 °FSunny.2 mph87%29.68 "Hg10 mi
7:20 AM45 °FClear.6 mph87%29.68 "Hg10 mi
6:50 AM45 °FClear.2 mph87%29.68 "Hg10 mi
6:20 AM45 °FClear.3 mph87%29.68 "Hg10 mi
5:50 AM45 °FClear.3 mph87%29.68 "Hg10 mi
5:20 AM45 °FClear.3 mph87%29.68 "Hg10 mi
4:50 AM46 °FClear.2 mph82%29.68 "Hg10 mi
4:20 AM46 °FClear.5 mph82%29.71 "Hg10 mi
3:50 AM46 °FClear.3 mph82%29.71 "Hg10 mi
3:20 AM48 °FClear.5 mph76%29.71 "Hg10 mi
2:50 AM50 °FClear.3 mph71%29.71 "Hg10 mi
2:20 AM52 °FClear.6 mph67%29.71 "Hg10 mi
1:50 AM52 °FClear.3 mph67%29.74 "Hg10 mi
1:20 AM52 °FClear.6 mph67%29.74 "Hg10 mi
12:50 AM55 °FClear.8 mph59%29.74 "Hg10 mi
12:20 AM55 °FClear.6 mph63%29.74 "Hg10 mi
11:50 PM
Apr 20
55 °FClear.8 mph59%29.74 "Hg10 mi
11:20 PM55 °FClear.7 mph59%29.74 "Hg10 mi
10:50 PM55 °FClear.7 mph59%29.71 "Hg10 mi
10:20 PM55 °FClear.9 mph63%29.71 "Hg10 mi
9:50 PM59 °FClear.7 mph51%29.71 "Hg10 mi
9:20 PM61 °FSunny.8 mph48%29.71 "Hg10 mi
8:50 PM61 °FSunny.9 mph45%29.71 "Hg10 mi
8:20 PM64 °FSunny.7 mph40%29.68 "Hg10 mi
7:50 PM64 °FSunny.7 mph40%29.68 "Hg10 mi
7:20 PM68 °FSunny.8 mph35%29.68 "Hg10 mi
6:50 PM70 °FSunny.12 mph31%29.68 "Hg10 mi
6:20 PM70 °FSunny.12 mph33%29.68 "Hg10 mi
5:50 PM70 °FSunny.10 mph33%29.65 "Hg10 mi
5:20 PM72 °FSunny.14 mph29%29.68 "Hg10 mi
4:50 PM70 °FSunny.16 mph33%29.68 "Hg10 mi
4:20 PM72 °FSunny.15 mph27%29.68 "Hg10 mi
3:50 PM72 °FSunny.12 mph31%29.68 "Hg10 mi
3:20 PM70 °FSunny.9 mph31%29.68 "Hg10 mi
2:50 PM70 °FSunny.12 mph35%29.68 "Hg10 mi
2:20 PM72 °FSunny.14 mph33%29.71 "Hg10 mi
1:50 PM72 °FSunny.13 mph36%29.71 "Hg10 mi
1:20 PM70 °FSunny.15 mph43%29.71 "Hg10 mi
12:50 PM68 °FPassing clouds.20 mph46%29.71 "HgN/A
12:20 PM68 °FPassing clouds.16 mph49%29.71 "HgN/A
11:50 AM66 °FPassing clouds.15 mph52%29.74 "HgN/A
11:20 AM64 °FPassing clouds.15 mph56%29.74 "HgN/A
10:50 AM63 °FPassing clouds.15 mph56%29.74 "HgN/A
10:20 AM63 °FSunny.12 mph59%29.77 "Hg10 mi
9:50 AM59 °FSunny.12 mph68%29.77 "Hg10 mi
9:20 AM57 °FSunny.14 mph72%29.77 "Hg10 mi
Weather by CustomWeather, © 2014

See weather overview